Location: Tr�vern
(48.0333°N, 4.6000°W)
Time: 18:51:40
(UTC+00:00)

Cosmos 1269 Rocket - Pass Details

Date: 14 July 2020
Orbit: 773 x 778 km, 74.1° (Epoch: 11 August)

Event Time Altitude Azimuth Distance (km) Brightness Sun altitude
Exits shadow 00:07:31 40° 197° (SSW) 1,129 4.4 -20.2°
Maximum altitude 00:09:29 86° 112° (ESE) 782 3.9 -20.3°
Drops below altitude 10° 00:14:47 10° 24° (NNE) 2,330 7.4 -20.3°
Sets 00:17:11 0° 24° (NNE) 3,261 8.4 -20.3°
